Time,TemperatureF,DewpointF,PressureIn,WindDirection,WindDirectionDegrees,WindSpeedMPH,WindSpeedGustMPH,Humidity,HourlyPrecipIn,Conditions,Clouds,dailyrainin,SoftwareType,DateUTC
2013-04-13 00:07:00,13.1,-2.0,30.37,NE,45,0.0,0.0,52,0.00,,,0.01,weatherlink.com 1.10,2013-04-13 08:07:00,
2013-04-13 00:37:00,13.3,-2.0,30.37,NE,45,0.0,0.0,50,0.00,,,0.01,weatherlink.com 1.10,2013-04-13 08:37:00,
2013-04-13 01:07:00,11.9,-2.0,30.38,NE,46,0.0,0.0,53,0.00,,,0.00,weatherlink.com 1.10,2013-04-13 09:07:00,
2013-04-13 01:22:00,11.9,-2.0,30.38,NE,45,0.0,0.0,54,0.00,,,0.00,weatherlink.com 1.10,2013-04-13 09:22:00,
2013-04-13 01:37:00,13.2,-2.0,30.38,NE,55,3.0,3.0,51,0.00,,,0.00,weatherlink.com 1.10,2013-04-13 09:37:00,
2013-04-13 01:53:00,12.1,-2.0,30.38,NNW,338,0.0,1.0,53,0.00,,,0.00,weatherlink.com 1.10,2013-04-13 09:53:00,
2013-04-13 02:23:00,10.7,-3.0,30.39,ENE,63,0.0,2.0,55,0.00,,,0.00,weatherlink.com 1.10,2013-04-13 10:23:00,
2013-04-13 02:38:00,9.6,-3.0,30.39,East,101,0.0,0.0,57,0.00,,,0.00,weatherlink.com 1.10,2013-04-13 10:38:00,
2013-04-13 02:53:00,8.7,-3.0,30.39,East,100,0.0,0.0,59,0.00,,,0.00,weatherlink.com 1.10,2013-04-13 10:53:00,
2013-04-13 03:08:00,9.5,-3.0,30.39,East,101,0.0,0.0,57,0.00,,,0.00,weatherlink.com 1.10,2013-04-13 11:08:00,
2013-04-13 03:23:00,9.0,-2.0,30.39,East,101,0.0,0.0,60,0.00,,,0.00,weatherlink.com 1.10,2013-04-13 11:23:00,
2013-04-13 03:53:00,7.8,-3.0,30.39,East,100,0.0,1.0,61,0.00,,,0.00,weatherlink.com 1.10,2013-04-13 11:53:00,
2013-04-13 04:08:00,8.7,-3.0,30.40,ESE,115,0.0,1.0,60,0.00,,,0.00,weatherlink.com 1.10,2013-04-13 12:08:00,
2013-04-13 04:23:00,8.4,-3.0,30.40,ESE,116,0.0,0.0,59,0.00,,,0.00,weatherlink.com 1.10,2013-04-13 12:23:00,
2013-04-13 04:38:00,8.7,-3.0,30.40,ESE,116,0.0,0.0,60,0.00,,,0.00,weatherlink.com 1.10,2013-04-13 12:38:00,
2013-04-13 04:53:00,7.7,-3.0,30.40,SE,131,0.0,0.0,62,0.00,,,0.00,weatherlink.com 1.10,2013-04-13 12:53:00,
2013-04-13 05:09:00,8.3,-3.0,30.40,ESE,113,0.0,0.0,61,0.00,,,0.00,weatherlink.com 1.10,2013-04-13 13:09:00,
2013-04-13 05:39:00,7.5,-3.0,30.40,ENE,66,0.0,2.0,62,0.00,,,0.00,weatherlink.com 1.10,2013-04-13 13:39:00,
2013-04-13 05:54:00,6.6,-3.0,30.41,ENE,67,0.0,0.0,64,0.00,,,0.00,weatherlink.com 1.10,2013-04-13 13:54:00,
2013-04-13 06:09:00,5.9,-3.0,30.41,ENE,67,0.0,0.0,66,0.00,,,0.00,weatherlink.com 1.10,2013-04-13 14:09:00,
2013-04-13 06:39:00,4.5,-4.0,30.42,East,87,0.0,0.0,68,0.00,,,0.00,weatherlink.com 1.10,2013-04-13 14:39:00,
2013-04-13 06:54:00,3.8,-4.0,30.42,SE,134,1.0,1.0,70,0.00,,,0.00,weatherlink.com 1.10,2013-04-13 14:54:00,
2013-04-13 07:09:00,4.2,-4.0,30.42,SE,134,0.0,1.0,70,0.00,,,0.00,weatherlink.com 1.10,2013-04-13 15:09:00,
2013-04-13 07:24:00,6.8,-2.0,30.43,SE,134,0.0,0.0,66,0.00,,,0.00,weatherlink.com 1.10,2013-04-13 15:24:00,
2013-04-13 07:39:00,7.9,-2.0,30.43,SE,134,0.0,1.0,63,0.00,,,0.00,weatherlink.com 1.10,2013-04-13 15:39:00,
2013-04-13 07:54:00,9.5,-2.0,30.43,SE,134,0.0,0.0,60,0.00,,,0.00,weatherlink.com 1.10,2013-04-13 15:54:00,
2013-04-13 08:09:00,11.9,0.0,30.43,SE,134,0.0,0.0,58,0.00,,,0.00,weatherlink.com 1.10,2013-04-13 16:09:00,
2013-04-13 08:24:00,12.7,-1.0,30.44,SE,129,0.0,1.0,54,0.00,,,0.00,weatherlink.com 1.10,2013-04-13 16:24:00,
2013-04-13 08:40:00,11.8,-2.0,30.44,SE,138,1.0,3.0,55,0.00,,,0.00,weatherlink.com 1.10,2013-04-13 16:40:00,
2013-04-13 08:55:00,10.5,-2.0,30.45,ESE,114,2.0,4.0,57,0.00,,,0.00,weatherlink.com 1.10,2013-04-13 16:55:00,
2013-04-13 09:10:00,10.3,-2.0,30.45,ESE,113,4.0,5.0,57,0.00,,,0.00,weatherlink.com 1.10,2013-04-13 17:10:00,
2013-04-13 09:25:00,10.4,-2.0,30.45,ESE,118,3.0,5.0,58,0.00,,,0.00,weatherlink.com 1.10,2013-04-13 17:25:00,
2013-04-13 09:55:00,13.6,0.0,30.45,SE,142,2.0,3.0,55,0.00,,,0.00,weatherlink.com 1.10,2013-04-13 17:55:00,
2013-04-13 10:10:00,14.1,0.0,30.45,SE,131,3.0,5.0,53,0.00,,,0.00,weatherlink.com 1.10,2013-04-13 18:10:00,
2013-04-13 10:25:00,14.2,-1.0,30.45,East,94,2.0,6.0,52,0.00,,,0.00,weatherlink.com 1.10,2013-04-13 18:25:00,
2013-04-13 10:40:00,14.2,0.0,30.45,West,263,1.0,5.0,54,0.00,,,0.00,weatherlink.com 1.10,2013-04-13 18:40:00,
2013-04-13 10:55:00,15.5,1.0,30.46,SE,141,3.0,4.0,52,0.00,,,0.00,weatherlink.com 1.10,2013-04-13 18:55:00,
2013-04-13 11:10:00,16.0,1.0,30.45,SE,127,3.0,7.0,52,0.00,,,0.00,weatherlink.com 1.10,2013-04-13 19:10:00,
2013-04-13 11:25:00,17.3,1.0,30.45,SSE,163,2.0,4.0,49,0.00,,,0.00,weatherlink.com 1.10,2013-04-13 19:25:00,
2013-04-13 11:40:00,17.4,1.0,30.45,SSE,166,0.0,4.0,49,0.00,,,0.00,weatherlink.com 1.10,2013-04-13 19:40:00,
2013-04-13 11:56:00,17.1,1.0,30.45,SSW,210,2.0,7.0,50,0.00,,,0.00,weatherlink.com 1.10,2013-04-13 19:56:00,
2013-04-13 12:11:00,18.7,2.0,30.45,ESE,117,3.0,5.0,49,0.00,,,0.00,weatherlink.com 1.10,2013-04-13 20:11:00,
2013-04-13 12:26:00,19.1,2.0,30.45,SSE,158,1.0,6.0,48,0.00,,,0.00,weatherlink.com 1.10,2013-04-13 20:26:00,
2013-04-13 13:11:00,21.1,2.0,30.45,SE,142,3.0,5.0,44,0.00,,,0.00,weatherlink.com 1.10,2013-04-13 21:11:00,
2013-04-13 13:41:00,21.8,2.0,30.44,SE,141,3.0,5.0,42,0.00,,,0.00,weatherlink.com 1.10,2013-04-13 21:41:00,
2013-04-13 13:56:00,22.3,3.0,30.45,SSW,207,2.0,4.0,43,0.00,,,0.00,weatherlink.com 1.10,2013-04-13 21:56:00,
2013-04-13 14:11:00,23.5,2.0,30.44,SSE,147,0.0,6.0,40,0.00,,,0.00,weatherlink.com 1.10,2013-04-13 22:11:00,
2013-04-13 14:26:00,24.3,3.0,30.44,SE,136,2.0,5.0,40,0.00,,,0.00,weatherlink.com 1.10,2013-04-13 22:26:00,
2013-04-13 14:41:00,25.3,3.0,30.44,West,262,1.0,4.0,39,0.00,,,0.00,weatherlink.com 1.10,2013-04-13 22:41:00,
2013-04-13 14:57:00,24.7,3.0,30.43,SW,226,0.0,6.0,39,0.00,,,0.00,weatherlink.com 1.10,2013-04-13 22:57:00,
2013-04-13 15:12:00,26.3,3.0,30.43,ESE,106,5.0,5.0,37,0.00,,,0.00,weatherlink.com 1.10,2013-04-13 23:12:00,
2013-04-13 15:27:00,26.3,3.0,30.43,SE,143,0.0,4.0,36,0.00,,,0.00,weatherlink.com 1.10,2013-04-13 23:27:00,
2013-04-13 15:42:00,26.9,4.0,30.43,SE,130,5.0,6.0,37,0.00,,,0.00,weatherlink.com 1.10,2013-04-13 23:42:00,
2013-04-13 15:57:00,27.7,5.0,30.43,SE,132,4.0,5.0,38,0.00,,,0.00,weatherlink.com 1.10,2013-04-13 23:57:00,
2013-04-13 16:12:00,26.5,3.0,30.43,South,177,1.0,7.0,37,0.00,,,0.00,weatherlink.com 1.10,2013-04-14 00:12:00,
2013-04-13 16:27:00,26.9,4.0,30.42,West,266,2.0,5.0,37,0.00,,,0.00,weatherlink.com 1.10,2013-04-14 00:27:00,
2013-04-13 16:42:00,27.8,5.0,30.43,SSW,210,0.0,4.0,37,0.00,,,0.00,weatherlink.com 1.10,2013-04-14 00:42:00,
2013-04-13 16:57:00,27.8,5.0,30.43,SE,124,0.0,6.0,37,0.00,,,0.00,weatherlink.com 1.10,2013-04-14 00:57:00,
2013-04-13 17:12:00,26.2,4.0,30.43,SE,130,2.0,6.0,38,0.00,,,0.00,weatherlink.com 1.10,2013-04-14 01:12:00,
2013-04-13 17:27:00,26.1,4.0,30.43,South,177,2.0,8.0,39,0.00,,,0.00,weatherlink.com 1.10,2013-04-14 01:27:00,
2013-04-13 17:42:00,26.2,4.0,30.43,SSE,152,2.0,6.0,38,0.00,,,0.00,weatherlink.com 1.10,2013-04-14 01:42:00,
2013-04-13 17:57:00,25.8,4.0,30.43,ESE,103,2.0,5.0,39,0.00,,,0.00,weatherlink.com 1.10,2013-04-14 01:57:00,
2013-04-13 18:12:00,26.1,4.0,30.43,SW,222,0.0,6.0,39,0.00,,,0.00,weatherlink.com 1.10,2013-04-14 02:12:00,
2013-04-13 18:28:00,26.2,4.0,30.44,SSW,206,3.0,4.0,39,0.00,,,0.00,weatherlink.com 1.10,2013-04-14 02:28:00,
2013-04-13 18:43:00,25.6,4.0,30.43,SE,141,1.0,4.0,39,0.00,,,0.00,weatherlink.com 1.10,2013-04-14 02:43:00,
2013-04-13 18:58:00,24.7,4.0,30.43,South,172,1.0,4.0,41,0.00,,,0.00,weatherlink.com 1.10,2013-04-14 02:58:00,
2013-04-13 19:13:00,24.7,3.0,30.44,SE,141,2.0,3.0,40,0.00,,,0.00,weatherlink.com 1.10,2013-04-14 03:13:00,
2013-04-13 19:28:00,25.5,3.0,30.44,West,274,2.0,5.0,38,0.00,,,0.00,weatherlink.com 1.10,2013-04-14 03:28:00,
2013-04-13 19:43:00,26.1,3.0,30.44,ESE,122,0.0,4.0,37,0.00,,,0.00,weatherlink.com 1.10,2013-04-14 03:43:00,
2013-04-13 19:58:00,24.9,1.0,30.44,West,275,2.0,5.0,36,0.00,,,0.00,weatherlink.com 1.10,2013-04-14 03:58:00,
2013-04-13 20:13:00,23.8,2.0,30.45,WSW,252,1.0,6.0,38,0.00,,,0.00,weatherlink.com 1.10,2013-04-14 04:13:00,
2013-04-13 20:28:00,23.0,1.0,30.45,West,281,2.0,4.0,39,0.00,,,0.00,weatherlink.com 1.10,2013-04-14 04:28:00,
2013-04-13 20:43:00,22.0,0.0,30.46,West,266,1.0,6.0,39,0.00,,,0.00,weatherlink.com 1.10,2013-04-14 04:43:00,
2013-04-13 20:58:00,21.1,1.0,30.45,West,267,0.0,6.0,41,0.00,,,0.00,weatherlink.com 1.10,2013-04-14 04:58:00,
2013-04-13 21:13:00,20.0,0.0,30.46,West,278,0.0,3.0,41,0.00,,,0.00,weatherlink.com 1.10,2013-04-14 05:13:00,
2013-04-13 21:28:00,18.8,-1.0,30.46,West,277,0.0,1.0,42,0.00,,,0.00,weatherlink.com 1.10,2013-04-14 05:28:00,
2013-04-13 21:43:00,17.5,-1.0,30.46,West,277,0.0,0.0,44,0.00,,,0.00,weatherlink.com 1.10,2013-04-14 05:43:00,
2013-04-13 21:59:00,17.6,-1.0,30.47,West,263,0.0,0.0,44,0.00,,,0.00,weatherlink.com 1.10,2013-04-14 05:59:00,
2013-04-13 22:14:00,17.1,-1.0,30.47,West,263,0.0,0.0,45,0.00,,,0.00,weatherlink.com 1.10,2013-04-14 06:14:00,
2013-04-13 22:29:00,16.8,-2.0,30.47,West,263,0.0,0.0,44,0.00,,,0.00,weatherlink.com 1.10,2013-04-14 06:29:00,
2013-04-13 22:44:00,15.8,-1.0,30.48,West,263,0.0,0.0,47,0.00,,,0.00,weatherlink.com 1.10,2013-04-14 06:44:00,
2013-04-13 22:59:00,15.9,-1.0,30.48,West,262,0.0,0.0,47,0.00,,,0.00,weatherlink.com 1.10,2013-04-14 06:59:00,
2013-04-13 23:14:00,16.3,-1.0,30.48,West,263,0.0,0.0,46,0.00,,,0.00,weatherlink.com 1.10,2013-04-14 07:14:00,
2013-04-13 23:29:00,16.5,-1.0,30.48,West,263,0.0,0.0,46,0.00,,,0.00,weatherlink.com 1.10,2013-04-14 07:29:00,
2013-04-13 23:44:00,16.3,-1.0,30.48,West,263,0.0,0.0,46,0.00,,,0.00,weatherlink.com 1.10,2013-04-14 07:44:00,
2013-04-13 23:59:00,16.0,-1.0,30.49,West,263,0.0,0.0,47,0.00,,,0.00,weatherlink.com 1.10,2013-04-14 07:59:00,